Voltar ao catálogo

CZ-6A DEB

AtivoPO
NORAD 60825·DEBRIS·🇨🇳 China

Lançado Aug 6, 2024 de Taiyuan Satellite Launch Center

Loading…

Próximas Passagens (próximas 24 horas)

TLE

AtualizadoSource: Space-Track

Época: Sep 14, 2026, 16:16 UTC

1 60825U 24140HC  26257.67809003  .00001407  00000-0  42236-3 0  9999
2 60825  88.7925 242.4143 0064722  48.5646 312.1090 14.41013147109682

Acompanhe CZ-6A DEB em tempo real com AllMySat

Download on the App Store